View from above orbital plane
|
View from above satellite
|
Ground track
|
The orbit data is extracted from the following two-line orbital elements,
1 00082U 61004B 21109.82730995 -.00000091 00000-0 -28419-4 0 9997
2 00082 38.8534 143.9186 1175545 122.2555 249.7517 12.26039952845411
Epoch (UTC): | 19 April 2021 19:51:19 |
Eccentricity: | 0.1175545 |
inclination: | 38.8534° |
perigee height: | 632 km |
apogee height: | 2500 km |
right ascension of ascending node: | 143.9186° |
argument of perigee: | 122.2555° |
revolutions per day: | 12.26039952 |
mean anomaly at epoch: | 249.7517° |
orbit number at epoch: | 84541 |
The dashed part of the orbit path shows where the satellite is in the earth's shadow,
|
|